Regional Weather Roundup
Issued by NWS

Home | Current Version | Previous Version | Graphics & Text | Print | Product List | Glossary On
Versions: 1 2 3 4 5 6 7 8 9 10 11 12 13 14 15 16 17 18 19 20 21 22 23 24 25 26 27 28 29 30 31 32 33 34 35 36 37 38 39 40 41 42 43 44 45 46 47 48 49 50
000
ASUS43 KFSD 200102
RWRSD

WEATHER ROUNDUP FOR SOUTH DAKOTA
NATIONAL WEATHER SERVICE SIOUX FALLS SD
800 PM CDT FRI SEP 19 2014

NOTE: "FAIR" INDICATES FEW OR NO CLOUDS BELOW 12,000 FEET WITH NO
SIGNIFICANT WEATHER AND/OR OBSTRUCTIONS TO VISIBILITY.


SDZ001>005-009-010-012>017-200200-
NORTHWEST AND NORTH CENTRAL SOUTH DAKOTA

CITY           SKY/WX    TMP DP  RH WIND       PRES   REMARKS
FAITH            N/A     71  49  45 NW10      29.84R
MOBRIDGE       PTCLDY    71  54  54 NW9       29.73R
$$

SDZ012>016-024>037-041>051-057-063-072>074-200200-
SOUTHWEST AND SOUTH CENTRAL SOUTH DAKOTA

CITY           SKY/WX    TMP DP  RH WIND       PRES   REMARKS
RAPID CTY ARPT PTCLDY    73  49  42 N13       29.88R
PIERRE         CLEAR     73  55  53 NW10      29.75R
CUSTER         PTCLDY    66  48  52 NE5       30.02R
ELLSWORTH AFB  PTCLDY    76  49  38 N14       29.89R
PHILIP         CLOUDY    75  55  49 NE7       29.80R
PINE RIDGE     CLEAR     73  55  53 NE5       29.85R
WINNER         FAIR      78  56  46 W5        29.78R
$$

SDZ004>011-016>023-039-040-200200-
NORTHEAST SOUTH DAKOTA

CITY           SKY/WX    TMP DP  RH WIND       PRES   REMARKS
ABERDEEN       CLEAR     69  58  67 SW7       29.68R
WATERTOWN      CLEAR     68  62  81 SW6       29.71R
SISSETON         N/A     72  66  81 W9        29.64R
$$

SDZ017-020-022-023-036>040-048>070-200200-
SOUTHEAST SOUTH DAKOTA

CITY           SKY/WX    TMP DP  RH WIND       PRES   REMARKS
SIOUX FALLS    PTCLDY    76  65  68 W5        29.71R
HURON          MOCLDY    72  59  63 NW5       29.70R
CHAMBERLAIN    PTCLDY    77  56  48 N7        29.75R
MITCHELL       LGT RAIN  78  66  66 SW5       29.71R
YANKTON        PTCLDY    79  66  65 CALM      29.70S
$$

ABBREVIATIONS USED IN REMARKS
   TC - TEMPERATURE IN CELSIUS
  WCI - WIND CHILL INDEX
   HX - HEAT INDEX
  VSB - VISIBILITY




USA.gov is the U.S. government's official web portal to all federal, state and local government web resources and services.